Regional Weather Roundup
Issued by NWS Burlington, VT

Current Version | Previous Version | Text Only | Print | Product List | Glossary On
Versions: 1 2 3 4 5 6 7 8 9 10 11 12 13 14 15 16 17 18 19 20 21 22 23 24 25 26 27 28 29 30 31 32 33 34 35 36 37 38 39 40 41 42 43 44 45 46 47 48 49 50
000
ASUS41 KBTV 011230
RWRBTV
VERMONT REGIONAL WEATHER ROUNDUP
NATIONAL WEATHER SERVICE BURLINGTON VT
800 AM EDT WED OCT 01 2014

NOTE: "FAIR" INDICATES FEW OR NO CLOUDS BELOW 12,000 FEET WITH NO
SIGNIFICANT WEATHER AND/OR OBSTRUCTIONS TO VISIBILITY.

* THESE REPORTS ARE NOT UNDER NWS QUALITY CONTROL AND/OR DO NOT
  REPORT WEATHER SUCH AS PRECIPITATION AND FOG.

VTZ001>019-011300-
_____VERMONT_____


CITY           SKY/WX    TMP DP  RH WIND       PRES   REMARKS
BURLINGTON     CLOUDY    53  51  93 N7        30.13R FOG
6HR MIN TEMP:  53; 6HR MAX TEMP:  55;

MONTPELIER     FOG       54  54 100 NE5       30.16R VSB 1/4
6HR MIN TEMP:  53; 6HR MAX TEMP:  56;

MORRISVILLE    CLOUDY    54  52  93 CALM      30.15R FOG
6HR MIN TEMP:  50; 6HR MAX TEMP:  53;

ST. JOHNSBURY*   N/A     55  53  93 MISG      30.11R
6HR MIN TEMP:  54; 6HR MAX TEMP:  56;

MIDDLEBURY*    CLOUDY    55  55 100 N6        30.11R FOG
6HR MIN TEMP:  55; 6HR MAX TEMP:  56;

RUTLAND*       CLOUDY    57  52  82 E8        30.10R
6HR MIN TEMP:  57; 6HR MAX TEMP:  57;

SPRINGFIELD    LGT RAIN  57  54  89 CALM      30.11R
6HR MIN TEMP:  56; 6HR MAX TEMP:  58; 6HR PCP: TRACE;

HIGHGATE*      FOG       49  49  99 N3        30.15R VSB 1/4
6HR MIN TEMP:  49; 6HR MAX TEMP:  49;

NEWPORT*       CLOUDY   N/A N/A N/A CALM      30.14R
BENNINGTON     CLOUDY    58  55  90 N5        30.08R
6HR MIN TEMP:  55; 6HR MAX TEMP:  59; 6HR PCP:  0.02;

MT. MANSFIELD*   N/A     50 N/A N/A SW2         N/A

_____LAKE CHAMPLAIN_____


CITY           SKY/WX    TMP DP  RH WIND       PRES   REMARKS
BURTON ISLAND*   N/A     52  50  93 N1          N/A
COLCHESTER RF*   N/A     54  52  94 N12         N/A
DIAMOND ISL*     N/A     54  54 100 N18         N/A

$$

NYZ007-026>031-035-052-083-011300-
_____NORTHERN NEW YORK_____


CITY           SKY/WX    TMP DP  RH WIND       PRES   REMARKS
PLATTSBURGH    CLOUDY    50  50 100 N8        30.15R FOG
6HR MIN TEMP:  50; 6HR MAX TEMP:  54;

SARANAC LAKE   FOG       52  52 100 NE7       30.10S VSB 1/2
6HR MIN TEMP:  47; 6HR MAX TEMP:  52;

MASSENA        CLOUDY    54  52  93 E9        30.14R
6HR MIN TEMP:  54; 6HR MAX TEMP:  54;

OGDENSBURG*    CLOUDY    55  54  94 E9        30.12R
POTSDAM*       CLOUDY    54  54 100 E7        30.12R FOG
WATERTOWN      CLOUDY    55  52  88 NE10      30.08R HAZE
6HR MIN TEMP:  54; 6HR MAX TEMP:  56;

FT DRUM        FOG       54  54 100 NE7       30.09R VSB 1/4
6HR MIN TEMP:  51; 6HR MAX TEMP:  53;

ALBANY         CLOUDY    61  57  87 CALM      30.07R
6HR MIN TEMP:  59; 6HR MAX TEMP:  61; 6HR PCP: TRACE;

GLENS FALLS    CLOUDY    60  55  83 NE5       30.08R
6HR MIN TEMP:  59; 6HR MAX TEMP:  61;


$$
NHZ002-005-011-011300-
_____NEW HAMPSHIRE_____


CITY           SKY/WX    TMP DP  RH WIND       PRES   REMARKS
LEBANON        CLOUDY    58  53  84 CALM      30.10R
6HR MIN TEMP:  57; 6HR MAX TEMP:  59;

KEENE          CLOUDY    57  48  72 CALM      30.09R
6HR MIN TEMP:  55; 6HR MAX TEMP:  57; 6HR PCP:  0.10;

MT WASHINGTON  CLOUDY    43  39  87 E17         N/A
6HR MIN TEMP:  41; 6HR MAX TEMP:  43;

PLYMOUTH       CLOUDY    56  56 100 CALM      30.11R
6HR MIN TEMP:  55; 6HR MAX TEMP:  57;

WHITEFIELD     CLOUDY    53  50  89 CALM      30.12R
6HR MIN TEMP:  50; 6HR MAX TEMP:  56; 6HR PCP: TRACE;


$$

_____REGIONAL QUEBEC LOCATIONS_____


CITY           SKY/WX    TMP DP  RH WIND       PRES   REMARKS
MONTREAL       CLOUDY    54  48  82 NE12      30.16R
QUEBEC CITY    PTSUNNY   48  43  81 NE15G22   30.20R
SHERBROOKE     CLOUDY    50  50 100 E2        30.14R

_____REGIONAL ONTARIO LOCATIONS_____


CITY           SKY/WX    TMP DP  RH WIND       PRES   REMARKS
OTTAWA         CLOUDY    54  52  94 E8        30.15R

______KEY______
VSB  - VISIBILITY IN MILES
WCI  - WIND CHILL INDEX
HX   - HEAT INDEX
$$



USA.gov is the U.S. government's official web portal to all federal, state and local government web resources and services.